Flag for Oman Weather past 2 weeks in Salalah, Oman

Now
82 °F

Pleasantly warm.


Feels Like: 81 °F
Forecast: 78 / 94 °F
Wind: 6 mph from North

Location: Salalah Airport

Current Time: Oct 26, 2014 at 8:57:23 AM

Latest Report: Oct 26, 2014 at 7:50 AM


Visibility: 4 mi

Pressure: 29.89 "Hg

Humidity: 32%

Dew point: 50 °F

Location of SalalahLocation

Historic Weather in Salalah — Graph

°F

Salalah temperature yesterday

Maximum temperature yesterday: 97 °F (at 11:50 AM)
Minimum temperature yesterday: 77 °F (at 3:50 AM)
Average temperature yesterday: 84 °F

Past Weeks' High & Low Weather Summary

 TemperatureHumidityPressure
High99 °F (Oct 24, 11:50 AM)79% (Oct 11, 6:50 AM)30.04 "Hg (Oct 11, 6:50 AM)
Low72 °F (Oct 17, 5:50 AM)14% (Oct 25, 11:50 AM)29.77 "Hg (Oct 25, 1:50 PM)
Average82 °F56%29.89 "Hg
* Reported Oct 11 6:50 AM — Oct 26 6:50 AM, Salalah, Weather by CustomWeather, © 2014

Note: Actual official high and low records may vary slightly from our data, if they occured in-between our weather recording intervals... More about our weather records

Advertising

Salalah weather history for previous 24 hours

 ConditionsComfort  
Time TempWeatherWind HumidityBarometerVisibility
6:50 AM
Oct 26
75 °FSunny.2 mph44%29.86 "Hg10 mi
5:50 AM77 °FClear.1 mph42%29.83 "Hg10 mi
4:50 AM77 °FWarm.3 mph42%29.83 "HgN/A
3:50 AM75 °FMild.No wind44%29.83 "HgN/A
2:50 AM77 °FClear.3 mph42%29.80 "Hg10 mi
1:50 AM75 °FMild.3 mph50%29.80 "HgN/A
12:50 AM77 °FClear.3 mph47%29.83 "Hg10 mi
11:50 PM
Oct 25
79 °FWarm.3 mph45%29.83 "HgN/A
10:50 PM79 °FClear.3 mph48%29.83 "Hg10 mi
9:50 PM81 °FWarm.2 mph45%29.83 "HgN/A
8:50 PM81 °FClear.5 mph48%29.83 "Hg10 mi
7:50 PM82 °FClear.2 mph48%29.83 "Hg10 mi
6:50 PM84 °FClear.No wind51%29.83 "Hg10 mi
5:50 PM84 °FSunny.2 mph48%29.80 "Hg10 mi
4:50 PM86 °FPassing clouds.5 mph46%29.80 "HgN/A
3:50 PM88 °FPassing clouds.9 mph38%29.77 "HgN/A
2:50 PM90 °FPassing clouds.7 mph29%29.77 "HgN/A
1:50 PM90 °FHot.10 mph31%29.77 "HgN/A
12:50 PM88 °FWarm.12 mph46%29.80 "HgN/A
11:50 AM97 °FExtremely hot.15 mph14%29.80 "Hg3 mi
10:50 AM95 °FPassing clouds.9 mph15%29.83 "HgN/A
9:50 AM91 °FSunny.3 mph26%29.86 "Hg10 mi
8:50 AM91 °FSunny.1 mph23%29.86 "Hg10 mi
Weather by CustomWeather, © 2014

See weather overviewHow to use our weather pages